Location: La Brionne
(46.1728°N, 1.7849°E)
Time: 17:25:55
(UTC+00:00)

Cosmos 1544 Rocket - Pass Details

Date: 28 October 2021
Orbit: 603 x 632 km, 82.5° (Epoch: 27 November)

Event Time Altitude Azimuth Distance (km) Brightness Sun altitude
Rises 04:15:51 0° 354° (N) 2,904 7.0 -23.4°
Reaches altitude 10° 04:18:07 10° 358° (N) 1,989 6.2 -23.0°
Maximum altitude 04:22:28 60° 78° (ENE) 704 4.0 -22.3°
Drops below altitude 10° 04:26:45 10° 159° (SSE) 1,956 6.3 -21.5°
Sets 04:28:59 0° 163° (SSE) 2,852 7.1 -21.1°
